[[{"header":{"parameterUnit":"m.s-1","parameterCategory":1,"la1":30.2992,"la2":30.254,"lo1":-89.0895,"lo2":-89.0443,"dy":0.0025,"dx":0.0025,"nx":19,"ny":19,"refTime":"2026-05-12T03:00:00:Z","depth":0,"parameterNumber":2,"parameterNumberName":"U-component_of_WINDS"},"data":[0,0,0,-3.7452,-3.7453,-3.749,-3.749,-3.7583,-3.7584,0,0,0,0,0,0,0,0,0,0,0,-3.7468,-3.747,-3.7451,-3.7453,-3.749,-3.749,-3.7583,-3.7584,0,0,0,0,0,0,0,0,0,0,0,-3.7468,-3.7469,-3.7471,-3.7453,-3.749,-3.749,-3.7582,-3.7538,0,0,0,0,0,0,0,0,0,0,-3.7495,-3.7537,-3.7469,-3.7471,-3.7454,-3.749,-3.749,-3.7536,-3.7541,-3.7586,0,-3.7633,0,-3.761,-3.7593,-3.7594,0,0,0,-3.7433,-3.7533,-3.7517,-3.7472,-3.7454,-3.749,-3.7468,-3.7538,-3.7545,-3.7594,-3.7633,-3.7636,-3.7612,-3.7594,-3.7595,-3.7919,-3.7921,0,0,-3.7431,-3.749,-3.7513,-3.7523,-3.752,-3.7467,-3.7469,-3.7541,-3.7589,-3.7634,-3.7637,-3.7613,-3.7595,-3.7596,-3.7916,-3.7919,0,0,0,-3.7439,-3.749,-3.7471,-3.752,-3.7524,-3.7468,-3.7471,-3.7586,-3.7575,-3.7638,-3.7614,-3.7596,-3.7598,-3.7913,-3.7917,-3.8096,0,0,0,-3.7436,-3.7494,-3.7472,-3.7509,-3.7523,-3.7555,-3.7515,-3.757,-3.7576,-3.7614,-3.7596,-3.7599,-3.7911,-3.7915,-3.8085,-3.8172,0,0,0,-3.7457,-3.7496,-3.7511,-3.7512,-3.7529,-3.7552,-3.7545,-3.757,-3.7563,-3.7594,-3.7599,-3.7909,-3.7915,-3.8076,-3.8155,-3.8274,0,0,0,-3.7495,-3.7671,-3.7515,-3.7701,-3.753,-3.7663,-3.7544,-3.764,-3.7688,-3.7597,-3.7911,-3.7917,-3.8073,-3.8145,-3.8264,-3.8385,-3.844,0,0,-3.7749,-3.7703,-3.7808,-3.7669,-3.7845,-3.7652,-3.7854,-3.7843,-3.7792,-3.7879,-3.7886,-3.8089,-3.8154,-3.8272,-3.8731,-3.8775,0,0,0,-3.7908,-3.7985,-3.8018,-3.8066,-3.806,-3.8062,-3.8013,-3.8008,-3.8079,-3.7849,-3.8161,-3.8199,-3.8265,-3.832,-3.8358,-3.8411,-3.7945,-3.7944,-3.7943,-3.8355,-3.8278,-3.8446,-3.8375,-3.8423,-3.8369,-3.8401,-3.8385,-3.8296,-3.8372,-3.8397,-3.8685,-3.8752,-3.878,-3.8836,-3.8454,-3.8455,-3.8456,-3.8456,-3.872,-3.8816,-3.869,-3.8808,-3.8727,-3.8826,-3.8781,-3.8714,-3.8794,-3.8659,-3.8714,-3.8574,-3.8831,-3.8876,-3.8469,-3.8467,-3.8465,-3.8464,-3.8463,-3.9004,-3.9037,-3.9027,-3.9086,-3.9141,-3.9062,-3.9145,-3.9068,-3.8996,-3.905,-3.9069,-3.9066,-3.9053,-3.9064,-3.9065,-3.9066,-3.9067,-3.9068,-3.9068,-3.9304,-3.9286,-3.9364,-3.9372,-3.9391,-3.9407,-3.9354,-3.9371,-3.9371,-3.9309,-3.9309,-3.9213,-3.887,-3.8786,-3.9084,-3.9081,-3.9079,-3.9078,-3.9077,-3.9704,-3.96,-3.9721,-3.9741,-3.9742,-3.9801,-3.9701,-3.9743,-3.9746,-3.979,-3.9681,-3.944,-3.9387,-3.9357,-3.9286,-3.9696,-3.9696,-3.9696,-3.9696,-3.9944,-3.9909,-4.0014,-4.005,-4.0077,-3.9998,-4.0138,-4.0098,-4.0041,-4.0038,-3.9968,-3.9868,-3.984,-3.9804,-3.9763,-3.9697,-4.0202,-4.0202,-4.0203,-4.0186,-4.0149,-4.0283,-4.0223,-4.0218,-4.0216,-4.0344,-4.0392,-4.0306,-4.0222,-4.0035,-4.0013,-3.9851,-3.9802,-3.9716,-3.9655,-3.9531,0,0]},{"header":{"parameterUnit":"m.s-1","parameterCategory":1,"la1":30.2992,"la2":30.254,"lo1":-89.0895,"lo2":-89.0443,"dy":0.0025,"dx":0.0025,"nx":19,"ny":19,"refTime":"2026-05-12T03:00:00:Z","depth":0,"parameterNumber":3,"parameterNumberName":"V-component_of_WINDS"},"data":[0,0,0,-0.9598,-0.9601,-0.9762,-0.9763,-0.9965,-0.9966,0,0,0,0,0,0,0,0,0,0,0,-0.9546,-0.9547,-0.9598,-0.9602,-0.9762,-0.9763,-0.9964,-0.9966,0,0,0,0,0,0,0,0,0,0,0,-0.9546,-0.9547,-0.9549,-0.9602,-0.9762,-0.9763,-0.9964,-0.9844,0,0,0,0,0,0,0,0,0,0,-0.9689,-0.9637,-0.9547,-0.9549,-0.9603,-0.9762,-0.9763,-0.9839,-0.9852,-0.9889,0,-0.992,0,-0.9946,-0.9979,-0.998,0,0,0,-0.9605,-0.9626,-0.9673,-0.9549,-0.9605,-0.9762,-0.9691,-0.9846,-0.9861,-0.9907,-0.9923,-0.9931,-0.9949,-0.9981,-0.9982,-1.018,-1.0181,0,0,-0.9597,-0.9574,-0.9662,-0.9682,-0.9655,-0.9686,-0.9696,-0.9855,-0.9872,-0.9924,-0.9936,-0.9953,-0.9982,-0.9984,-1.0179,-1.018,0,0,0,-0.9568,-0.9567,-0.961,-0.9674,-0.9703,-0.969,-0.9702,-0.9865,-0.9881,-0.9938,-0.9955,-0.9983,-0.9986,-1.0178,-1.018,-1.0194,0,0,0,-0.9563,-0.9551,-0.9606,-0.9594,-0.97,-0.9786,-0.9708,-0.987,-0.9889,-0.9954,-0.9983,-0.9987,-1.0178,-1.0179,-1.0192,-1.0205,0,0,0,-0.9537,-0.9548,-0.957,-0.9592,-0.966,-0.9784,-0.9809,-0.9875,-0.9899,-0.998,-0.9988,-1.0177,-1.0179,-1.019,-1.0202,-1.0251,0,0,0,-0.9504,-0.9582,-0.9569,-0.9663,-0.9659,-0.979,-0.9808,-0.9908,-0.9979,-0.9984,-1.0178,-1.0179,-1.0189,-1.0201,-1.0248,-1.0288,-1.0302,0,0,-0.959,-0.9591,-0.9648,-0.9642,-0.9769,-0.9767,-0.9898,-0.9986,-1.0016,-1.0124,-1.0129,-1.0192,-1.0202,-1.025,-1.0386,-1.0396,0,0,0,-0.9668,-0.9709,-0.9747,-0.9813,-0.9879,-0.9938,-1.0008,-1.004,-1.0133,-1.0066,-1.0223,-1.023,-1.0259,-1.0279,-1.0288,-1.0315,-1.0187,-1.0187,-1.0187,-0.9759,-0.979,-0.9886,-0.9936,-0.9999,-1.0068,-1.0123,-1.0179,-1.0194,-1.023,-1.0263,-1.0341,-1.0364,-1.0371,-1.0398,-1.0285,-1.0285,-1.0285,-1.0286,-0.9889,-0.9952,-0.9966,-1.0065,-1.0097,-1.0181,-1.0251,-1.0258,-1.0342,-1.0319,-1.0347,-1.0321,-1.0381,-1.0407,-1.0287,-1.0287,-1.0287,-1.0286,-1.0286,-0.9954,-0.9989,-1.0024,-1.012,-1.0191,-1.0239,-1.0317,-1.0344,-1.0371,-1.0398,-1.0436,-1.0435,-1.044,-1.0413,-1.0413,-1.0414,-1.0414,-1.0414,-1.0414,-1.0007,-1.0047,-1.0109,-1.0183,-1.0228,-1.029,-1.0358,-1.0403,-1.046,-1.0474,-1.0475,-1.0486,-1.0381,-1.0354,-1.0419,-1.0418,-1.0417,-1.0417,-1.0417,-1.013,-1.0106,-1.0201,-1.0245,-1.0335,-1.0403,-1.0435,-1.0524,-1.0565,-1.0603,-1.0607,-1.0524,-1.0529,-1.0522,-1.0501,-1.0599,-1.0599,-1.0599,-1.0599,-1.0186,-1.0189,-1.0292,-1.036,-1.043,-1.0468,-1.0576,-1.0629,-1.0681,-1.0708,-1.0698,-1.0671,-1.0662,-1.0672,-1.0662,-1.0642,-1.0775,-1.0775,-1.0775,-1.0263,-1.0274,-1.0361,-1.0408,-1.0479,-1.054,-1.0643,-1.0722,-1.0776,-1.0783,-1.0731,-1.0723,-1.068,-1.0664,-1.0673,-1.0657,-1.0621,0,0]}]]